Regional Weather Roundup
Issued by NWS

Home | Current Version | Previous Version | Text Only | Print | Product List | Glossary Off
Versions: 1 2 3 4 5 6 7 8 9 10 11 12 13 14 15 16 17 18 19 20 21 22 23 24 25 26 27 28 29 30 31 32 33 34 35 36 37 38 39 40 41 42 43 44 45 46 47 48 49 50

000
ASUS43 KFSD 202110
RWRSD

WEATHER ROUNDUP FOR SOUTH DAKOTA
NATIONAL WEATHER SERVICE SIOUX FALLS SD
400 PM CDT SAT SEP 20 2014

NOTE: "FAIR" INDICATES FEW OR NO CLOUDS BELOW 12,000 FEET WITH NO
SIGNIFICANT WEATHER AND/OR OBSTRUCTIONS TO VISIBILITY.


SDZ001>005-009-010-012>017-202200-
NORTHWEST AND NORTH CENTRAL SOUTH DAKOTA

CITY           SKY/WX    TMP DP  RH WIND       PRES   REMARKS
BUFFALO          N/A     74  38  27 NW24G35   30.10R
FAITH            N/A     75  38  26 N25G40    30.09R
MOBRIDGE       MOSUNNY   75  44  33 NW17G32   29.98R
$$

SDZ012>016-024>037-041>051-057-063-072>074-202200-
SOUTHWEST AND SOUTH CENTRAL SOUTH DAKOTA

CITY           SKY/WX    TMP DP  RH WIND       PRES   REMARKS
RAPID CTY ARPT SUNNY     76  39  26 N24G40    30.15S
PIERRE         SUNNY     79  44  28 NW28G38   29.99R
CUSTER         SUNNY     70  34  26 N13G21    30.26R
ELLSWORTH AFB  SUNNY     76  41  28 N23G35    30.15R
PHILIP         SUNNY     79  44  28 N26G33    30.07R
PINE RIDGE     SUNNY     79  45  29 NE18G29   30.13R
WINNER         FAIR      83  43  24 NW28G37   30.00R
$$

SDZ004>011-016>023-039-040-202200-
NORTHEAST SOUTH DAKOTA

CITY           SKY/WX    TMP DP  RH WIND       PRES   REMARKS
ABERDEEN         N/A     75  48  38 NW29G41   29.91R
WATERTOWN      MOSUNNY   77  52  41 NW28G39   29.83R
SISSETON         N/A     66  61  84 N16       29.85R
$$

SDZ017-020-022-023-036>040-048>070-202200-
SOUTHEAST SOUTH DAKOTA

CITY           SKY/WX    TMP DP  RH WIND       PRES   REMARKS
SIOUX FALLS    PTSUNNY   81  52  36 W16G29    29.85F
HURON          MOSUNNY   81  46  29 NW30G43   29.87R
CHAMBERLAIN    MOSUNNY   82  45  27 NW28G38   29.96R
MITCHELL       MOSUNNY   85  47  26 NW26G37   29.89S
YANKTON        SUNNY     82  52  34 W21G28    29.89F
$$

ABBREVIATIONS USED IN REMARKS
   TC - TEMPERATURE IN CELSIUS
  WCI - WIND CHILL INDEX
   HX - HEAT INDEX
  VSB - VISIBILITY




USA.gov is the U.S. government's official web portal to all federal, state and local government web resources and services.